RH
65 66 64 58 53 51 51 52 52 51 48 43 36 27 28 37 45 49 52 51 47 46 43 43 46 41 40 42 37 35 33 31 32 32 32 31 29 26 23 21 19 19 19 19 19 17 16 14 13 11 10 10 10 12 13 16 17 19 23 25 28 30 33 37 40 47 51 51 45 38 35 28 21 16 13 12 11 12 11 10 10 8 8 10 17 25 25 30
64 64 62 57 54 53 54 55 53 51 45 40 34 32 38 47 53 56 55 54 50 47 44 40 40 40 39 39 37 36 33 33 34 34 33 30 28 25 22 20 20 20 19 18 17 16 14 13 11 10 11 11 13 17 19 22 23 28 31 30 38 45 41 38 40 45 47 45 43 44 45 41 36 29 22 18 17 16 14 11 8 10 14 16 26 36 32 24
60 59 58 55 54 55 54 54 51 46 42 39 42 45 50 54 58 61 59 56 53 48 44 41 41 41 40 39 37 35 35 36 36 34 32 29 26 23 21 20 20 19 19 17 16 14 12 11 10 10 13 15 21 23 24 26 29 36 35 35 47 48 39 36 37 42 45 47 48 49 50 50 51 49 43 38 32 24 17 15 10 16 23 26 41 42 29 28
56 55 55 55 53 54 53 51 48 45 46 50 56 57 56 60 62 62 61 57 53 48 44 43 42 42 41 39 38 37 38 37 36 33 30 27 24 22 21 20 19 18 17 15 14 12 10 11 11 14 19 23 25 24 27 28 30 42 42 42 46 38 37 39 39 44 48 51 51 52 53 54 57 56 53 49 46 37 25 23 18 19 23 31 52 46 33 51
53 54 53 54 53 53 52 51 51 52 57 61 63 63 61 63 64 63 61 57 52 48 45 44 43 43 41 40 39 39 39 36 33 30 26 24 21 20 19 18 17 16 15 13 12 11 12 14 17 22 24 25 27 31 39 33 29 44 43 36 37 35 42 45 45 50 51 51 52 54 56 58 62 62 60 57 59 59 42 34 30 23 26 35 45 42 47 67
53 54 53 54 54 54 54 55 57 60 62 64 65 64 64 64 63 62 59 55 51 48 47 46 44 43 41 41 42 40 38 32 27 26 23 21 19 18 17 16 15 14 13 12 12 13 15 19 23 25 26 33 41 45 48 35 29 45 43 33 39 44 49 50 49 52 50 50 51 55 57 59 67 68 67 63 61 61 45 40 43 33 34 39 39 42 53 59
62 58 55 55 56 56 57 58 60 62 63 63 64 65 65 64 62 60 57 54 51 49 48 46 44 43 43 43 41 38 34 26 22 22 20 18 17 16 15 15 14 13 12 12 14 17 22 26 27 29 38 52 58 53 46 36 33 41 41 40 48 49 48 47 47 50 51 52 51 55 59 61 67 64 62 60 49 47 44 40 38 31 33 34 35 50 58 60
73 68 63 59 58 58 58 60 60 61 62 63 64 64 64 62 60 58 56 53 51 49 47 46 45 44 44 41 38 33 28 23 19 18 17 16 15 14 14 14 13 12 14 17 20 26 31 33 36 42 51 59 59 53 44 41 43 40 39 44 49 46 43 44 48 51 51 52 56 63 68 65 66 66 65 61 46 46 49 39 28 25 33 37 44 64 74 80
74 72 69 63 58 59 60 61 62 62 63 64 65 64 62 61 59 57 55 53 51 48 47 46 45 44 41 38 33 26 23 20 18 17 16 15 14 14 15 14 13 15 20 25 30 35 40 46 51 54 55 56 56 53 46 47 49 42 42 48 49 47 45 47 49 50 52 58 67 76 79 70 68 71 69 66 58 59 53 36 35 37 44 60 75 89 92 93
73 69 68 64 60 61 63 64 65 66 66 66 65 64 62 59 57 55 53 52 50 48 47 45 43 41 38 32 25 20 20 19 16 16 16 15 15 15 15 15 17 21 27 35 41 43 50 59 61 60 60 60 57 51 47 50 48 43 48 53 54 52 49 49 49 51 58 69 76 83 84 75 73 73 72 76 75 79 70 50 57 68 71 84 95 98 97 95
69 65 65 64 64 66 68 69 70 70 69 67 65 62 60 57 55 53 52 50 48 47 44 42 41 38 31 24 18 17 19 18 16 16 15 14 14 15 15 16 22 28 37 46 50 54 62 66 62 63 65 59 52 47 46 48 48 48 52 54 56 56 53 51 51 56 65 74 79 86 87 81 81 76 75 85 86 87 87 78 87 94 90 92 94 93 94 95
67 66 67 67 69 70 72 74 73 72 69 66 63 59 56 54 52 50 49 47 45 44 42 41 38 31 23 19 17 17 18 17 17 16 14 14 15 15 16 20 28 36 46 53 56 61 68 69 66 66 64 54 49 50 49 49 52 54 53 55 58 59 61 61 60 63 68 75 81 90 93 85 83 80 77 86 90 88 88 90 97 95 87 89 93 89 89 90
69 70 71 71 73 73 76 76 73 71 67 63 59 56 53 51 49 47 46 45 43 43 41 37 30 22 18 17 18 19 19 18 16 14 14 15 16 15 20 30 40 48 54 56 59 65 69 70 68 65 62 54 50 52 53 53 56 57 54 55 60 61 61 64 68 68 67 74 83 92 94 84 80 82 81 82 82 81 82 88 94 95 90 90 92 87 82 80
73 74 75 76 78 78 78 75 71 68 64 62 58 55 53 50 48 46 45 44 43 41 35 28 21 18 17 17 19 20 19 16 14 14 15 16 17 20 29 41 49 55 58 58 61 66 70 71 67 62 59 54 51 54 57 58 58 60 57 53 58 59 52 55 63 62 65 72 81 92 94 86 84 85 83 79 76 76 82 89 94 96 91 87 84 76 69 63
78 79 80 80 81 79 77 73 70 67 65 62 59 56 53 50 48 46 45 43 39 33 25 20 18 19 20 18 18 18 17 16 15 15 16 17 19 25 37 48 55 60 63 64 65 67 71 71 66 61 57 55 55 54 54 54 56 64 63 54 56 57 48 50 54 55 63 69 78 91 89 83 85 86 83 79 78 81 86 89 90 91 87 79 67 57 53 51
84 84 84 83 80 77 75 73 70 68 65 62 58 53 49 46 45 44 41 35 28 23 19 20 21 22 23 20 18 18 18 17 15 15 16 18 22 31 43 54 62 68 71 71 70 71 72 70 64 58 55 57 58 58 61 61 59 61 61 57 58 58 52 52 54 56 62 65 74 85 81 80 86 86 84 81 83 87 88 85 81 79 74 62 52 51 55 54
86 86 84 82 79 76 74 72 70 66 61 55 49 44 42 41 40 37 31 25 22 21 23 24 23 24 25 22 19 20 18 16 15 15 16 18 23 35 49 61 70 76 76 76 77 76 75 72 64 58 56 57 58 63 75 79 68 59 59 60 58 56 54 52 52 55 60 64 73 78 75 75 79 82 84 82 81 80 79 76 70 64 58 51 53 62 64 59
85 84 83 81 78 76 73 69 64 57 50 45 41 39 38 35 31 27 22 23 24 25 27 26 23 24 24 22 20 19 17 15 15 15 17 22 29 42 57 68 75 80 79 78 79 79 76 70 63 59 57 57 59 63 73 78 69 62 62 64 61 60 57 51 47 47 53 62 71 76 70 60 59 67 72 72 69 66 66 68 65 60 56 57 61 66 64 57
84 82 81 80 76 71 65 59 53 48 44 43 40 36 31 27 24 23 25 30 33 33 31 26 25 27 24 21 19 18 16 16 15 15 23 34 44 57 69 75 79 83 81 77 77 76 73 69 67 66 63 63 64 64 70 75 70 66 65 66 67 64 57 50 45 41 44 54 66 72 68 56 49 50 53 56 58 60 62 63 64 65 63 63 63 60 54 45
82 80 77 71 64 58 52 47 44 42 41 38 34 29 26 26 27 28 30 31 33 33 29 24 26 27 24 23 21 20 18 18 19 22 34 45 57 70 74 74 78 82 81 76 74 71 68 70 74 72 65 63 65 65 69 72 72 72 69 66 64 59 55 52 48 42 40 46 57 65 66 61 54 48 49 53 55 58 59 56 58 65 65 61 55 47 39 33
76 71 64 56 49 46 43 41 38 36 34 29 26 26 27 30 33 31 28 28 29 30 29 26 28 27 25 26 25 24 24 23 25 28 39 52 64 77 79 75 77 83 85 81 75 70 68 76 80 70 59 56 57 61 67 69 72 74 71 67 62 59 59 56 53 47 43 48 56 61 62 63 62 59 59 59 58 59 59 56 55 60 58 51 45 39 34 31
66 59 52 47 44 43 40 37 34 31 28 26 25 26 27 29 31 28 27 32 33 33 33 32 32 30 29 30 30 32 32 31 37 40 47 62 74 85 88 84 83 85 82 76 74 74 79 85 81 71 60 52 50 56 64 68 69 72 72 69 63 61 61 59 58 51 47 54 60 63 64 62 64 66 65 63 61 62 60 57 53 52 49 43 40 37 33 29
63 57 53 50 45 40 37 34 31 28 26 26 25 26 27 30 31 29 33 38 35 36 38 37 38 36 37 39 36 38 37 36 48 56 63 77 86 93 95 89 84 80 74 70 68 76 95 95 81 76 68 53 47 51 58 62 63 67 68 67 65 63 60 57 58 54 52 56 58 62 66 64 64 64 62 59 58 58 56 54 52 50 46 40 36 31 26 21
68 63 58 51 43 37 34 31 28 26 24 24 25 27 30 34 35 35 41 43 39 40 42 41 43 42 43 44 39 40 37 37 52 63 72 87 95 97 97 91 81 74 68 60 51 60 86 89 80 84 74 56 49 46 50 55 56 62 66 66 64 61 57 54 57 57 55 55 55 58 61 60 62 62 58 55 55 55 52 52 51 47 41 34 29 24 21 19
72 67 59 47 38 32 28 27 25 24 23 24 27 31 35 36 35 35 41 46 43 41 46 49 48 45 44 41 39 43 40 41 56 66 72 87 99 99 95 88 78 73 64 48 44 57 76 82 80 83 75 60 52 44 49 56 54 57 65 69 65 59 56 53 54 57 55 53 55 57 53 47 47 48 48 46 46 47 46 46 42 36 31 28 25 24 23 25
71 62 51 39 30 25 23 24 24 24 23 25 27 29 33 31 30 32 38 47 48 46 52 54 51 48 43 38 38 46 53 58 63 68 76 86 95 96 92 83 74 74 66 49 54 65 65 68 70 75 73 60 53 54 51 54 64 65 61 65 68 62 58 54 55 58 57 51 51 55 53 48 46 42 42 41 40 40 40 40 38 34 35 34 34 34 32 34
63 52 38 28 23 20 23 24 22 22 21 21 21 23 27 25 29 36 41 53 58 55 53 50 56 55 42 40 44 51 67 76 70 69 85 94 93 93 90 83 78 78 69 60 74 75 54 52 61 64 66 59 64 72 55 48 69 72 57 58 65 64 59 56 56 56 54 51 48 51 53 60 64 52 44 45 44 46 47 48 47 44 43 41 38 38 38 39
52 40 26 20 19 18 23 21 19 19 17 17 16 19 25 25 34 44 52 67 64 54 48 48 60 58 43 43 47 60 77 81 77 72 84 95 91 90 88 80 80 81 70 66 84 80 47 42 53 53 59 66 65 59 43 41 55 55 49 53 55 59 60 56 57 53 52 55 54 51 49 62 73 58 47 48 46 49 51 50 50 46 43 41 38 38 36 36
40 30 20 17 17 18 19 17 17 17 14 16 15 20 27 29 42 53 61 71 62 49 47 53 62 53 50 54 47 68 88 79 76 74 78 90 84 83 86 74 73 78 70 62 70 65 40 33 39 40 54 65 55 42 34 37 40 35 40 48 47 54 56 53 57 54 51 55 56 56 50 60 74 59 48 52 49 50 50 46 49 48 48 48 47 45 40 39
32 23 18 16 16 17 17 15 17 16 14 14 14 22 30 35 53 66 68 69 62 56 54 62 69 57 61 66 49 68 89 75 75 77 79 90 82 77 79 69 69 75 68 58 55 51 38 30 28 30 43 51 55 57 43 30 28 24 31 44 48 53 52 51 52 51 60 66 60 58 54 63 81 68 53 56 52 49 50 48 51 53 54 54 51 49 45 43
25 21 17 16 17 16 17 18 18 16 13 12 14 25 35 43 60 71 73 71 63 62 62 65 74 68 70 73 57 64 79 76 80 82 82 89 85 75 70 66 68 71 70 64 58 50 39 34 31 29 33 40 57 69 53 36 31 26 32 43 52 58 56 58 57 51 69 80 65 59 57 61 78 72 57 57 53 51 50 47 46 46 48 50 47 45 41 36
21 19 18 19 20 19 21 21 19 15 12 12 15 27 42 55 66 68 72 76 68 66 70 71 77 77 75 76 64 61 74 83 84 81 81 85 82 73 69 74 73 78 93 91 78 64 48 43 45 43 40 39 52 64 56 49 44 39 37 42 62 77 66 65 71 61 66 74 62 60 61 59 65 63 55 53 51 52 50 44 38 34 35 37 38 40 34 29
19 19 21 25 24 23 23 19 17 15 11 12 16 31 52 67 75 73 72 77 76 75 78 78 79 76 73 72 62 55 67 80 76 77 84 78 73 73 75 77 73 79 95 91 83 82 71 60 57 59 55 43 46 55 55 55 56 54 48 48 71 86 73 72 79 68 64 69 63 61 61 56 59 62 59 53 49 54 56 47 38 33 32 31 33 38 34 28
19 22 24 26 23 21 21 17 16 15 14 17 23 41 62 72 73 71 72 77 80 83 86 81 76 72 68 65 63 63 66 70 71 80 87 79 76 81 78 75 75 78 80 76 78 84 84 79 71 69 62 46 41 48 53 57 61 61 58 59 66 69 69 75 74 63 60 65 64 63 61 56 60 66 61 53 51 56 60 54 46 44 44 39 36 37 32 26
20 24 24 23 20 19 19 16 14 17 20 26 36 51 66 71 68 63 66 74 79 87 89 80 72 67 63 61 66 74 72 70 77 83 83 81 83 81 75 76 80 76 75 81 83 76 78 83 76 67 55 40 39 44 47 54 65 68 63 61 62 60 63 64 61 54 51 61 66 64 64 58 54 58 54 51 53 55 56 55 52 51 50 46 42 39 32 23
20 24 22 21 19 17 18 15 12 16 22 29 42 53 57 61 60 56 62 72 81 89 85 80 78 68 64 68 70 74 75 73 77 82 82 80 78 77 78 82 80 68 69 83 86 83 88 85 73 63 47 32 35 43 46 56 70 71 60 56 56 56 59 60 59 51 46 65 71 60 62 61 58 63 59 54 56 53 51 50 47 46 47 48 46 44 37 23
20 22 20 18 19 17 16 14 11 13 17 24 33 38 40 46 51 58 71 79 85 86 80 83 86 74 70 76 72 73 83 84 78 80 85 81 76 81 85 83 77 70 72 81 83 82 84 79 68 59 45 31 27 34 47 62 70 61 50 49 48 52 61 58 54 55 56 68 71 62 61 60 64 71 60 51 54 53 50 45 41 40 44 49 45 42 39 25
19 20 22 19 17 17 14 13 13 12 15 21 23 24 32 44 51 66 83 84 81 80 78 81 81 73 70 71 71 75 85 90 82 75 80 83 80 84 87 83 83 83 77 78 84 79 72 76 69 52 41 33 24 26 42 55 58 49 40 37 34 46 65 57 45 51 58 61 63 63 61 57 58 58 48 45 50 53 53 46 41 39 41 47 45 43 43 30
17 24 34 25 16 16 14 13 14 13 15 19 19 21 31 42 51 71 86 79 71 73 75 74 73 75 72 65 69 76 80 88 85 73 77 84 80 79 84 87 90 90 79 74 80 70 57 65 66 53 47 41 28 30 44 48 43 37 34 37 38 42 55 57 48 47 51 52 49 46 50 55 53 45 40 41 42 46 49 44 40 39 39 44 45 44 47 38
17 32 44 25 14 18 15 14 19 23 26 25 23 23 31 45 57 74 83 73 67 68 70 72 71 74 74 67 69 74 78 88 86 76 80 82 76 76 83 86 85 84 79 74 73 60 46 49 54 52 51 47 41 44 52 52 48 44 39 45 54 53 52 56 54 49 45 41 33 29 35 43 43 39 32 29 29 33 35 34 35 35 36 40 42 42 46 44
18 38 45 22 15 20 16 17 27 39 44 38 34 34 40 56 68 77 78 70 68 69 67 70 71 72 75 73 75 77 78 81 80 76 79 80 80 81 86 89 84 80 79 75 69 60 51 50 50 48 49 53 54 49 43 45 51 52 47 48 54 53 50 53 54 48 37 31 26 22 23 28 37 41 30 22 26 27 28 32 36 37 37 39 41 41 44 45
20 40 45 23 17 21 18 19 26 40 53 51 47 48 54 65 74 80 77 69 70 70 64 66 68 69 73 75 77 79 76 76 77 75 75 78 85 86 86 87 81 78 79 76 71 61 50 48 48 47 49 54 53 48 45 47 46 43 46 51 49 43 41 44 48 46 38 37 33 23 22 29 33 33 25 22 24 23 23 28 32 34 35 39 41 40 41 43
24 36 39 23 18 22 21 21 22 32 49 55 55 56 62 70 77 82 78 69 72 73 67 67 68 69 72 74 75 76 74 76 79 77 75 78 83 84 84 81 78 79 77 73 73 62 48 48 53 52 49 44 39 38 43 47 42 38 44 44 38 39 41 37 41 44 37 35 33 26 29 32 27 23 22 22 23 21 23 24 23 24 25 32 39 37 38 40
26 27 28 23 21 22 22 21 19 26 42 52 53 53 57 65 74 81 80 74 74 76 75 74 72 73 75 75 75 75 76 77 76 74 75 76 79 83 83 78 76 81 80 75 73 64 55 56 60 61 61 56 52 49 49 49 45 46 49 43 41 52 52 38 35 34 25 23 28 30 34 31 23 23 23 23 22 21 23 25 25 25 23 26 32 33 36 35
29 24 23 23 22 22 25 22 17 27 46 53 52 48 48 58 72 82 83 81 80 80 81 79 77 79 81 81 81 81 82 82 80 79 78 77 79 83 85 82 77 79 81 76 63 53 51 53 55 63 69 72 75 72 66 60 53 50 50 49 56 63 55 41 34 31 31 31 30 32 36 29 22 23 24 22 19 16 20 27 31 31 29 30 32 33 34 31
30 26 23 24 23 23 26 23 20 34 51 55 52 48 44 56 78 88 86 86 87 85 83 84 85 83 82 84 86 85 86 87 87 88 87 84 82 81 82 81 76 72 72 66 52 41 39 40 44 52 56 59 62 59 54 53 52 55 57 59 63 57 42 35 30 30 38 37 28 29 31 25 23 25 23 18 15 15 19 25 29 29 30 33 35 33 30 25
29 26 23 24 25 24 23 22 26 39 51 53 52 48 45 54 73 83 83 84 87 89 87 86 87 86 84 85 86 84 85 87 86 89 91 89 84 80 77 76 71 62 55 49 41 34 33 34 35 39 40 40 41 39 40 46 48 51 53 56 55 42 27 25 26 29 32 28 30 36 29 22 25 25 19 17 15 15 18 22 27 29 30 31 31 27 22 18
29 27 25 25 25 24 23 24 29 38 46 51 51 49 47 50 57 64 69 75 82 88 90 87 86 88 89 88 86 84 85 87 86 87 89 89 87 79 69 63 55 44 37 34 32 29 33 35 33 32 32 32 34 36 39 42 42 42 42 40 35 27 21 21 26 30 26 21 28 34 25 21 25 22 18 18 15 13 16 22 27 27 25 25 23 20 15 12
28 27 27 27 26 25 25 26 29 35 42 48 50 48 47 47 49 50 53 62 73 82 89 89 85 85 86 88 89 86 86 89 91 90 88 86 84 70 54 50 46 36 31 31 29 29 30 31 31 31 32 32 34 36 36 34 32 30 28 25 22 21 21 21 23 25 22 21 26 26 21 22 23 21 20 18 15 14 14 17 20 21 19 18 17 14 12 11
28 27 27 28 27 26 26 27 30 35 41 46 47 47 46 45 46 48 51 56 64 74 87 92 91 91 93 95 93 86 82 85 90 90 83 77 72 56 41 43 45 39 34 31 29 30 31 31 32 32 33 33 31 30 29 27 24 22 22 22 22 23 24 23 23 23 21 22 24 21 22 27 24 20 20 18 15 14 13 13 15 16 15 14 12 12 12 12
31 28 28 29 28 27 26 28 32 37 41 44 45 45 44 43 45 50 55 58 62 75 89 94 96 99 100 99 94 84 78 75 72 69 62 57 56 48 38 41 41 34 32 30 27 28 28 29 30 28 27 29 28 27 27 25 23 24 27 28 26 26 26 23 22 19 17 19 19 15 17 24 23 18 19 19 16 14 13 13 13 12 13 13 12 12 12 11
33 30 29 30 30 28 26 28 33 39 41 43 45 42 41 43 45 51 61 68 75 86 92 93 94 95 94 96 93 80 68 56 46 42 41 40 40 37 34 37 35 30 29 26 22 23 24 24 24 23 24 26 26 25 26 27 27 29 33 30 24 23 22 20 19 15 12 14 16 12 11 14 14 12 14 17 18 17 15 13 12 13 12 12 12 13 12 11
Wind_Speed
13 13 14 14 14 17 21 24 27 30 31 34 37 40 43 46 47 48 48 48 47 46 44 40 36 33 31 27 25 23 21 20 20 19 18 17 15 14 15 16 17 18 18 17 17 17 18 19 20 21 22 22 22 21 21 20 19 17 16 15 16 16 15 16 15 14 15 16 19 19 18 19 20 22 23 24 24 23 24 24 25 25 25 26 27 26 25 25
9 9 9 9 11 15 19 21 23 26 28 31 34 38 41 43 44 44 45 45 44 43 41 37 34 31 29 26 24 22 21 21 20 19 17 15 14 15 16 18 18 17 16 15 16 16 17 18 20 21 21 20 20 19 17 16 15 14 13 12 13 12 12 14 13 13 14 15 17 17 16 16 16 17 19 21 22 22 24 24 25 25 25 26 24 23 23 23
4 5 5 7 10 13 15 17 20 23 26 29 33 37 40 41 41 41 42 42 42 40 37 34 32 30 27 25 23 22 22 21 20 18 15 14 15 17 17 17 15 14 14 14 15 16 17 18 19 19 19 18 17 16 14 13 13 12 11 10 10 11 12 13 14 13 14 15 16 17 16 15 15 16 17 19 20 20 22 23 24 24 24 24 21 20 20 19
3 4 5 7 9 11 13 16 19 23 27 30 34 37 39 40 39 39 39 39 39 37 35 33 30 28 26 25 23 23 22 20 18 15 15 16 17 16 15 14 13 12 13 13 14 15 16 17 17 17 16 15 14 13 12 11 11 10 10 10 11 12 13 13 13 13 14 15 16 16 15 15 16 16 16 17 18 18 18 20 23 23 22 21 19 16 17 17
5 6 7 8 10 12 15 18 22 26 29 32 35 37 38 38 38 37 37 37 36 35 34 31 29 27 26 25 24 22 21 18 16 15 16 17 16 14 12 11 11 11 12 12 13 14 14 14 14 14 13 12 11 10 10 10 9 9 10 11 11 12 13 13 14 14 14 15 14 14 13 15 16 16 16 17 19 18 17 19 21 20 20 19 16 15 16 16
9 9 10 12 14 16 19 22 26 29 32 34 36 38 38 38 37 36 35 35 35 34 32 30 29 28 26 25 23 21 18 16 16 17 17 16 14 12 11 10 10 10 11 12 12 12 12 12 12 11 9 9 10 9 10 10 9 9 11 12 12 12 13 14 14 14 14 14 13 12 12 13 14 13 13 13 14 15 15 16 17 16 17 16 15 15 16 17
11 12 13 15 17 19 22 25 28 31 34 36 38 38 38 38 37 35 35 34 34 32 31 30 29 28 26 24 21 19 17 17 17 17 16 13 12 11 10 9 9 9 10 11 11 11 10 9 9 7 7 9 10 10 9 9 8 8 10 10 10 10 12 12 12 12 12 12 11 10 10 11 11 10 9 8 7 9 10 10 10 13 14 15 15 15 15 16
13 14 15 17 18 21 24 27 30 33 36 37 38 39 38 37 37 36 35 34 33 32 31 30 29 27 25 22 20 18 18 18 17 16 14 12 11 10 9 8 8 9 9 10 9 8 6 6 5 6 7 9 10 9 7 6 6 7 8 8 8 9 10 10 8 9 9 9 8 8 9 9 7 7 7 5 3 4 5 6 9 12 13 14 14 14 13 13
15 16 17 17 20 23 26 29 32 35 37 38 38 38 38 37 36 35 34 33 33 32 31 29 27 25 23 21 20 19 19 18 16 15 13 12 11 9 7 7 7 8 8 8 7 5 3 4 5 6 7 9 9 6 4 5 5 5 4 5 6 7 7 7 6 5 5 6 6 8 9 8 5 3 3 2 1 1 4 6 9 10 11 12 13 14 13 12
16 17 18 18 21 25 28 31 33 35 36 37 38 38 37 36 35 34 33 33 32 30 29 27 25 23 22 21 20 20 20 18 16 15 13 12 11 9 7 7 7 7 6 5 3 2 2 4 4 5 7 7 7 5 3 3 3 3 3 4 5 4 3 3 2 2 3 5 6 7 8 5 2 1 1 2 2 4 6 8 10 11 12 13 14 14 14 13
17 17 18 20 23 26 29 32 33 35 36 36 36 36 35 34 33 32 32 31 29 28 27 26 24 23 23 23 21 20 19 18 17 15 13 12 10 9 8 8 8 6 4 2 1 1 2 4 4 4 4 4 4 3 3 3 3 3 3 5 5 4 4 3 2 3 3 5 7 6 6 5 1 2 4 4 4 6 7 9 11 12 13 13 13 13 14 14
17 17 19 22 25 28 30 32 33 34 35 35 35 34 34 33 32 31 30 29 28 27 26 25 25 24 24 23 22 21 19 18 17 15 14 12 11 9 8 8 7 5 3 2 1 1 2 3 3 3 2 2 3 4 4 4 4 4 5 5 5 6 7 5 4 4 4 5 6 6 5 5 4 4 6 6 7 8 9 10 11 11 13 12 11 12 12 11
18 20 22 24 27 29 31 32 33 33 34 34 34 33 33 32 31 30 29 29 28 27 26 26 25 25 24 23 23 22 19 18 16 15 14 13 11 9 7 7 5 3 2 2 2 1 1 1 2 2 1 1 4 5 5 5 5 5 6 6 6 7 7 6 5 5 4 4 6 5 4 5 5 5 6 7 8 9 10 11 10 10 11 11 10 9 9 9
20 22 24 26 28 30 31 32 32 33 34 34 34 33 33 32 31 30 30 29 28 27 26 26 26 25 24 24 23 21 19 17 15 14 14 13 10 8 7 6 5 3 2 2 2 2 2 1 1 1 0 3 5 6 6 6 6 5 6 7 7 8 8 7 5 5 4 5 5 5 5 5 5 4 5 8 9 9 9 9 9 8 9 9 8 8 8 8
22 23 25 27 28 30 31 32 32 33 34 34 34 33 33 32 32 31 30 29 28 27 27 26 25 25 23 22 21 19 17 16 15 15 14 12 10 8 7 6 5 3 3 3 2 3 2 2 2 1 2 4 6 6 6 6 6 6 6 8 8 7 8 7 6 5 5 4 4 4 5 5 4 5 6 8 8 7 8 8 9 8 8 8 7 8 8 8
23 24 26 27 28 29 30 32 32 33 33 33 33 33 33 32 32 31 29 28 28 27 26 26 25 24 23 20 19 17 16 15 15 15 14 12 9 8 7 6 5 4 4 4 3 3 3 2 2 3 4 5 6 7 9 8 6 6 6 7 7 6 6 7 6 5 5 4 4 4 4 5 5 6 8 8 7 6 7 7 8 9 9 8 7 8 7 7
23 24 25 27 28 29 30 31 32 33 33 33 33 33 33 32 31 30 29 28 27 27 26 26 25 24 22 19 18 16 16 15 15 14 13 11 9 8 6 5 5 6 5 5 5 4 3 3 3 4 5 5 6 7 10 10 6 5 5 6 6 5 5 6 6 5 5 4 4 5 6 6 7 7 8 8 7 7 6 7 7 8 8 7 7 7 6 7
23 24 25 26 27 29 30 31 32 33 33 33 33 33 32 31 30 29 28 27 26 25 25 25 23 21 20 18 17 16 16 15 15 14 13 11 9 7 6 6 6 6 6 6 5 4 3 3 4 5 6 6 6 7 9 9 6 4 4 5 4 4 4 4 4 4 5 5 5 6 6 7 8 7 7 8 7 7 7 6 6 6 6 6 6 6 5 6
22 23 24 25 27 28 30 31 32 32 32 32 32 32 31 30 29 29 29 29 27 25 24 24 22 20 19 17 16 16 16 15 14 13 12 11 9 8 7 7 6 6 5 5 5 4 3 3 4 5 6 6 6 8 8 7 6 5 4 5 4 3 3 3 2 2 3 4 5 6 6 7 8 7 6 6 6 6 6 5 4 4 5 5 5 5 6 6
22 22 23 25 26 28 29 31 31 31 31 31 31 31 30 29 28 28 29 29 27 25 24 23 21 19 19 18 16 16 15 15 13 12 12 11 10 8 8 7 6 6 4 4 3 3 2 3 3 5 4 4 5 6 7 7 7 6 4 5 4 3 3 2 1 1 2 4 5 4 4 6 7 7 5 5 5 4 4 4 3 4 4 4 4 5 6 5
21 22 23 24 26 27 28 29 29 30 30 29 29 29 29 29 28 28 27 26 24 23 23 21 18 17 18 18 17 16 15 14 13 12 12 11 9 8 7 6 6 5 4 3 2 2 1 2 3 3 3 3 4 5 7 7 8 7 5 4 4 3 3 2 2 0 2 3 5 4 3 4 7 6 4 4 4 4 4 3 4 5 5 5 5 5 4 3
21 21 22 23 24 25 26 27 27 27 27 27 27 27 28 28 27 26 26 24 23 22 21 20 17 15 16 16 16 15 14 13 13 12 12 11 10 8 7 7 6 4 4 3 2 1 1 1 1 2 2 2 3 5 6 7 8 8 5 4 4 4 3 3 2 2 3 3 5 4 3 5 7 6 4 4 4 5 5 5 5 6 6 5 5 4 2 1
20 21 21 22 23 23 23 24 25 25 26 26 27 27 28 27 26 25 24 22 21 21 20 18 16 15 15 15 15 15 15 15 15 14 13 11 10 10 8 7 6 5 4 3 3 2 0 0 1 1 2 2 2 4 6 7 7 7 6 5 4 4 4 5 5 5 5 4 5 6 5 5 7 6 4 5 6 6 6 6 6 6 5 5 4 2 1 1
19 19 20 20 21 21 22 23 23 24 25 26 26 27 27 27 26 25 22 21 20 19 17 16 14 14 14 14 14 15 15 16 16 16 15 13 12 10 8 7 6 4 4 4 4 3 2 3 3 2 2 1 1 3 5 6 6 7 6 5 4 4 4 6 7 7 7 7 7 8 8 7 6 6 5 5 6 6 5 5 5 5 5 4 3 2 1 1
17 18 19 20 20 20 21 21 22 23 24 24 25 25 26 25 23 22 20 19 19 18 16 14 13 13 13 13 13 14 15 16 17 17 16 14 12 10 8 6 5 4 5 5 3 2 3 5 5 4 3 1 1 3 4 5 5 5 6 5 4 4 5 6 7 7 7 8 8 8 9 9 6 5 5 5 5 5 5 5 4 4 4 3 3 2 2 1
17 18 19 20 20 20 20 20 21 22 22 22 22 22 22 21 19 19 19 18 17 17 15 14 13 12 12 13 14 16 16 16 17 17 15 13 10 9 7 5 5 4 5 4 2 2 4 6 6 5 3 1 1 2 3 3 3 4 5 4 4 3 4 5 6 6 7 8 8 8 8 8 6 5 5 5 5 4 4 4 3 2 2 2 1 1 1 1
17 18 19 19 20 20 20 20 20 20 20 19 19 19 19 19 19 19 18 17 16 16 15 15 14 13 13 14 16 18 17 17 17 16 13 11 9 8 6 5 4 4 4 4 2 1 4 5 5 4 3 1 1 2 2 2 2 2 3 3 3 3 3 4 5 5 6 6 6 6 6 5 4 4 3 3 4 3 3 2 2 1 1 0 1 1 2 2
17 18 19 19 19 19 19 18 18 17 17 17 17 18 18 19 19 19 18 15 15 16 16 15 14 13 14 15 16 16 15 15 17 16 13 11 8 7 5 5 5 4 4 4 1 1 4 4 3 2 2 1 1 3 3 3 3 2 2 1 2 2 3 3 4 4 4 3 3 3 3 3 2 1 1 1 2 3 2 1 0 0 1 1 2 2 2 3
17 18 18 18 18 19 18 17 16 16 16 16 16 17 18 19 19 17 16 14 14 15 15 15 15 13 14 15 14 15 14 13 15 15 13 10 8 6 5 5 5 4 4 3 2 2 3 4 3 2 2 1 3 4 4 3 3 3 1 1 1 1 2 2 3 3 3 2 1 0 1 2 1 2 3 4 3 3 3 2 2 2 2 2 3 3 3 3
16 17 18 18 18 17 17 16 15 15 15 16 16 17 17 18 16 14 14 14 14 15 14 14 15 13 12 13 13 15 15 13 13 13 11 10 8 6 5 5 6 6 4 3 2 2 2 3 3 2 2 2 3 5 5 4 3 3 2 1 1 2 2 2 1 2 2 2 0 0 1 1 1 2 3 4 4 4 3 3 3 4 4 4 4 4 3 3
17 17 17 17 17 16 15 14 14 14 14 15 16 17 17 16 14 14 14 13 13 15 14 13 15 12 11 11 12 15 16 13 12 12 11 10 9 7 6 6 7 5 3 3 1 1 2 2 3 2 1 2 3 4 5 4 3 3 2 1 2 3 3 2 1 2 3 2 1 1 1 1 1 2 3 4 4 5 4 4 5 4 5 5 5 4 3 3
17 17 17 16 16 15 14 13 12 13 14 15 16 17 16 15 14 14 13 12 12 14 13 12 13 12 10 11 12 15 16 14 12 12 11 10 9 8 7 7 7 4 1 3 2 1 2 2 1 2 2 2 2 3 4 4 3 3 1 1 2 4 4 4 3 2 2 1 2 3 2 3 2 3 3 4 4 5 6 6 6 5 4 5 5 4 3 4
17 17 16 15 14 13 12 11 11 12 13 14 15 16 16 15 14 13 13 12 12 12 12 12 12 11 11 12 12 14 15 15 13 12 11 9 9 9 8 8 7 5 3 4 2 1 1 1 1 2 2 2 2 2 3 3 3 3 1 1 2 3 3 3 3 3 3 2 2 3 3 3 3 3 4 4 5 5 5 6 6 5 5 5 5 3 3 4
17 16 15 14 13 12 11 11 10 11 13 14 15 15 15 15 14 12 11 11 11 11 11 11 12 11 12 12 12 13 14 14 14 13 11 9 8 8 8 7 6 4 4 4 3 2 2 2 2 3 2 2 2 2 2 2 2 1 1 2 2 2 2 1 1 2 3 2 3 3 3 3 3 3 3 4 5 5 5 5 5 5 5 5 4 3 2 3
16 15 14 13 12 12 11 11 11 13 14 14 15 15 15 14 13 11 10 11 11 12 12 12 13 12 13 12 12 12 12 12 13 13 12 10 9 8 8 6 5 4 4 3 3 2 1 2 2 3 3 2 1 1 2 2 1 0 1 1 2 3 2 1 1 2 2 2 3 3 3 4 5 5 4 5 6 6 6 5 5 5 5 5 4 3 2 3
15 14 14 13 13 12 12 11 13 14 15 15 14 14 14 14 13 11 10 10 12 14 13 13 13 13 13 13 13 13 11 11 12 12 11 10 9 7 5 3 3 3 3 4 4 2 1 2 2 2 2 2 1 1 1 2 2 1 1 1 1 3 3 2 1 2 2 2 4 4 4 5 6 6 5 6 7 6 6 6 6 6 5 4 3 2 2 2
16 15 14 14 13 12 12 12 13 14 14 14 14 14 13 12 11 10 8 8 11 15 14 13 14 15 15 14 14 14 12 10 11 11 10 9 8 6 5 4 3 2 3 3 3 3 2 3 2 2 2 2 2 2 1 2 2 2 3 3 2 2 3 3 2 2 2 3 4 4 5 6 7 8 7 6 7 7 7 8 7 6 5 3 2 1 2 2
17 16 14 14 13 12 12 12 12 13 13 13 13 13 12 11 10 8 7 8 11 14 13 12 14 15 16 15 14 14 13 9 9 10 10 9 8 6 5 4 2 2 3 3 3 3 3 3 2 1 2 2 3 3 1 1 2 2 4 4 4 2 1 2 3 2 2 3 3 4 6 7 8 10 9 8 8 8 8 9 8 7 5 3 2 1 1 1
17 16 13 13 13 12 13 12 12 12 12 12 13 13 12 11 10 8 8 10 11 12 12 12 12 13 14 14 13 14 12 8 8 10 9 9 8 7 6 5 3 2 3 3 4 4 3 4 3 1 2 3 3 3 2 1 2 3 3 4 4 4 3 3 4 3 3 3 3 4 6 8 9 10 11 10 9 8 9 9 8 7 6 5 4 2 1 1
17 16 13 14 13 13 13 13 12 12 12 13 13 13 12 11 11 10 10 11 12 12 12 11 12 13 14 13 13 13 11 9 10 10 9 10 9 7 7 6 4 4 4 3 5 4 3 4 4 3 3 4 3 2 2 2 3 3 4 4 4 5 4 4 4 4 4 4 3 3 6 9 10 10 11 11 10 10 9 9 9 8 6 6 5 4 3 3
18 16 14 15 14 13 14 13 13 12 12 13 13 13 12 11 12 13 12 12 12 13 13 12 13 15 15 14 13 12 11 9 9 8 9 10 10 8 7 7 5 4 5 5 5 4 3 4 5 4 5 5 4 3 3 3 3 4 4 4 4 4 4 4 5 6 5 5 5 4 7 10 10 10 11 11 11 11 10 10 10 9 7 6 5 4 4 4
19 17 16 16 16 15 14 14 13 12 11 12 13 13 13 12 13 14 13 13 14 13 13 12 13 15 16 14 13 12 11 8 7 8 9 10 10 9 8 8 7 6 6 6 6 5 4 4 5 5 5 6 6 4 4 4 4 4 5 5 4 4 4 4 5 6 6 6 5 4 7 10 10 10 12 11 11 11 10 10 10 9 8 8 7 5 5 5
19 19 19 19 17 16 15 15 15 13 12 12 13 13 13 13 14 15 15 15 15 15 14 13 13 15 15 13 12 12 11 9 9 10 9 9 10 10 10 10 8 6 6 6 6 6 5 5 6 6 7 8 7 5 5 6 5 4 5 6 5 5 5 5 6 7 7 6 6 4 6 10 10 10 11 11 11 11 11 11 10 9 9 8 7 7 6 6
19 19 19 19 19 17 16 16 15 14 12 12 13 13 13 13 14 16 16 17 17 16 15 14 13 14 14 12 11 12 12 11 11 10 10 10 10 10 11 11 10 7 6 6 6 6 6 6 7 7 7 7 7 6 7 7 5 4 6 6 6 5 6 6 6 7 7 6 6 5 6 10 10 9 10 11 11 10 10 9 9 9 8 7 7 7 6 6
19 19 19 19 19 19 17 17 16 15 12 12 13 13 12 12 14 16 18 18 18 18 17 16 15 15 14 12 12 13 11 10 10 9 9 10 11 11 11 12 11 9 8 8 7 7 7 7 7 7 7 7 7 8 8 7 6 5 7 7 6 6 7 7 6 6 7 6 5 6 7 10 10 9 10 10 9 8 7 7 7 7 7 5 5 6 6 6
20 19 19 19 19 19 17 17 16 15 13 12 13 13 12 11 12 16 19 19 19 19 19 18 16 16 15 13 12 14 13 11 11 11 9 10 10 10 11 13 13 11 10 9 9 8 9 9 8 8 8 8 8 8 8 8 8 7 8 8 8 9 8 7 6 7 7 6 6 7 7 8 9 9 9 8 8 7 5 5 5 5 4 4 5 6 6 6
21 19 19 19 19 18 17 17 17 16 14 13 14 13 12 11 12 14 17 18 18 19 19 19 17 16 16 14 13 13 14 13 11 12 11 10 10 10 12 14 15 13 11 9 9 9 9 10 10 9 9 9 8 8 8 9 8 8 9 9 9 9 8 7 7 7 6 6 7 7 7 7 8 8 7 7 7 6 4 2 3 3 4 4 5 6 6 6
21 20 19 19 19 18 18 18 18 17 15 15 15 14 13 12 12 13 15 16 17 18 19 19 18 16 15 14 14 13 13 12 9 7 8 10 11 12 13 14 14 12 9 8 9 8 9 9 9 8 8 8 8 8 8 8 8 8 9 9 9 9 7 6 7 7 6 6 6 7 6 5 6 6 6 6 6 5 3 1 1 3 4 5 5 5 6 6
22 21 20 20 19 18 18 18 18 17 17 16 15 15 14 13 13 14 15 16 16 17 18 19 19 18 18 16 15 14 12 11 11 10 10 11 12 13 13 13 11 8 6 7 7 7 8 7 6 7 7 6 6 6 6 6 7 8 8 9 8 7 5 5 6 6 5 4 4 4 4 4 5 6 6 6 4 3 2 1 2 3 4 5 5 5 5 5
23 22 21 21 20 20 19 19 19 18 17 17 16 15 15 15 15 16 17 17 17 17 17 17 17 17 16 14 12 12 12 12 12 13 13 13 12 12 13 12 8 6 6 7 7 7 7 5 5 6 6 5 5 5 5 6 6 7 7 6 6 5 5 5 5 4 3 2 2 2 3 4 4 5 5 5 4 2 1 1 2 2 3 4 4 4 4 4
24 23 22 21 21 21 20 19 19 19 18 17 16 16 17 17 17 18 18 18 18 18 17 16 13 11 11 10 9 10 12 12 12 12 13 12 11 11 11 9 7 6 6 6 6 6 5 4 4 5 4 3 4 4 5 5 5 5 4 4 4 4 4 4 3 1 1 1 2 2 3 4 4 5 5 4 3 2 1 1 1 2 3 3 3 3 3 4
26 24 23 23 22 22 21 20 20 19 19 18 17 17 18 18 18 19 21 21 20 18 17 15 12 10 9 9 9 10 12 12 11 10 11 11 10 11 10 8 6 6 6 5 5 5 4 4 4 3 2 2 3 4 4 4 4 4 3 3 4 4 3 2 1 1 1 2 2 2 3 4 5 4 4 3 3 2 1 0 1 1 2 3 3 4 4 4
Wind_Direction
260 256 253 248 238 224 212 207 205 203 202 201 199 197 195 194 193 194 196 199 202 205 206 205 205 206 208 209 210 211 213 216 219 222 225 226 227 230 234 238 242 247 254 262 271 279 285 290 293 294 294 293 291 289 287 286 285 286 286 286 287 288 285 285 287 286 283 281 283 288 288 284 279 272 267 263 259 254 250 247 244 243 242 243 246 248 248 250
251 245 239 230 220 211 204 202 201 198 195 194 191 189 189 189 188 190 193 196 199 202 203 203 202 202 203 204 205 207 210 213 217 219 222 223 225 228 231 236 243 250 260 270 279 286 291 293 293 293 292 291 289 287 286 285 286 287 287 291 290 289 286 285 288 288 287 285 286 287 285 286 282 277 272 265 260 256 251 247 244 242 243 244 245 247 248 250
227 216 209 201 198 196 192 192 191 186 183 182 182 181 183 183 183 185 189 192 195 198 199 198 198 198 198 199 202 204 208 211 214 217 218 219 222 226 231 238 247 258 268 277 285 289 290 290 290 290 288 286 285 283 281 283 287 288 289 291 284 285 290 290 291 290 288 285 284 282 281 282 282 282 278 268 262 260 255 249 244 241 242 244 244 243 244 246
149 154 159 167 171 173 172 173 172 170 170 172 174 175 176 177 177 179 184 188 191 193 194 193 193 192 193 196 199 202 205 209 211 212 213 216 219 225 233 243 254 265 274 281 285 286 287 288 288 285 281 279 280 281 280 286 293 291 291 290 284 290 294 293 292 290 289 287 282 280 283 282 277 279 277 268 263 263 262 252 243 239 238 241 244 237 235 240
103 115 125 137 143 149 153 156 157 158 162 166 167 169 170 170 171 174 178 182 186 188 189 188 187 188 191 194 197 199 202 204 204 205 209 213 218 225 235 246 257 267 274 280 282 284 286 285 282 278 276 282 291 296 293 299 304 298 298 296 295 300 299 298 296 294 295 295 290 287 289 282 276 279 276 272 268 265 268 258 245 238 233 238 241 231 231 239
92 102 113 123 130 138 144 148 150 155 159 162 163 163 163 164 165 168 173 177 181 182 183 183 184 186 189 191 194 197 197 194 195 201 207 211 216 224 235 245 256 264 271 276 279 281 280 278 277 279 290 306 314 317 312 312 312 302 301 303 304 305 304 304 300 298 302 302 301 298 294 285 282 288 281 276 273 262 263 260 246 234 230 231 229 226 232 238
93 101 109 119 128 136 142 145 150 155 157 158 158 158 158 158 161 164 169 173 175 177 178 180 182 184 186 188 190 189 186 187 192 198 202 208 214 223 231 240 251 261 269 274 275 275 276 277 282 295 323 333 327 321 320 318 315 305 299 298 295 297 301 301 297 298 303 304 306 303 296 290 288 291 286 285 278 256 254 255 233 219 218 217 219 224 230 234
95 103 110 119 128 136 142 147 151 153 154 154 154 154 154 156 158 162 166 169 171 174 176 179 180 181 182 183 181 176 179 187 191 193 197 203 211 217 224 235 251 262 267 268 268 271 280 292 308 329 339 338 328 319 320 316 314 311 299 286 283 293 299 300 298 297 304 308 312 313 306 303 301 291 282 286 286 251 231 220 199 197 205 208 215 220 220 222
94 103 111 120 130 138 144 147 150 151 151 151 151 152 152 154 157 160 163 166 169 172 175 177 177 177 177 174 171 171 178 186 188 191 195 199 205 209 218 234 248 255 258 261 262 268 297 330 343 340 336 335 323 304 305 315 322 326 310 297 299 303 299 296 295 296 313 323 330 338 325 309 302 296 269 262 288 182 169 176 180 184 193 196 201 206 203 199
92 102 112 122 133 140 144 146 147 148 148 149 150 150 151 152 155 158 162 166 168 170 172 173 172 170 166 164 167 173 178 183 185 189 191 194 199 202 212 226 234 241 246 251 256 274 343 1 354 346 342 332 308 284 302 340 359 0 344 339 337 330 309 286 284 326 353 353 0 2 350 334 285 285 195 195 144 149 153 153 168 177 180 184 190 195 192 189
94 103 115 126 135 140 142 142 143 144 146 147 147 147 147 149 152 156 160 163 164 165 166 166 164 161 159 161 166 174 179 182 183 184 186 188 191 197 207 215 220 225 230 230 227 8 16 11 1 2 354 320 309 327 1 32 41 20 8 10 15 28 45 71 79 51 31 12 18 17 15 36 86 106 136 160 139 143 149 150 165 172 174 179 184 187 187 190
100 110 121 129 134 137 138 139 140 142 143 142 141 141 142 145 149 152 156 157 158 159 160 160 158 157 159 163 167 173 179 180 179 179 180 183 187 196 202 206 208 208 203 184 157 77 35 13 5 12 353 322 10 35 45 56 54 39 32 33 42 48 53 60 71 67 47 22 29 38 47 62 83 104 124 141 141 142 144 153 160 160 167 173 176 181 183 186
107 116 124 129 132 134 135 137 138 138 138 137 136 137 139 142 145 148 150 152 153 155 156 155 155 156 159 165 169 172 176 176 175 175 176 180 186 191 190 188 185 184 184 172 158 128 82 20 10 12 343 44 64 65 67 68 67 62 50 49 56 55 53 53 71 75 50 42 46 49 66 78 90 110 121 129 140 143 140 149 154 150 158 163 166 173 174 177
112 120 125 129 131 132 134 134 135 134 133 133 134 135 137 139 142 144 146 148 151 152 153 152 153 157 163 169 170 169 171 172 171 172 175 180 182 179 174 171 165 164 171 161 155 143 129 99 58 46 92 78 75 74 75 76 73 70 64 64 65 63 59 55 67 73 58 61 55 46 69 85 99 120 127 130 137 141 139 147 154 156 158 160 161 161 163 171
114 119 124 126 128 130 131 131 131 131 131 131 132 133 135 137 139 142 145 147 149 150 151 151 153 158 165 171 169 166 169 169 167 169 174 177 175 170 166 163 159 156 148 143 150 151 144 123 99 105 102 80 70 69 67 70 70 68 74 75 71 68 67 63 65 73 73 66 45 39 65 79 101 124 133 137 138 138 142 146 149 153 153 156 159 157 162 169
113 118 121 124 126 128 129 129 129 129 130 130 131 132 134 137 139 142 144 145 146 148 149 150 154 158 163 168 167 165 166 165 164 168 173 173 168 165 165 156 151 149 145 147 152 152 141 119 112 108 93 75 67 66 54 49 58 64 73 79 75 72 73 72 70 74 78 66 48 56 73 81 102 122 129 134 133 132 138 143 144 145 149 155 160 161 164 168
112 117 120 123 125 127 127 128 128 129 129 130 131 133 135 137 140 141 142 143 145 146 148 152 155 158 161 164 164 163 163 162 164 169 172 170 165 164 162 151 148 152 152 154 154 152 139 115 108 94 80 68 64 67 53 44 51 66 75 83 82 82 78 75 74 72 70 69 78 88 89 86 93 113 124 124 125 126 131 139 143 146 151 158 162 163 164 167
113 117 120 123 125 126 128 128 129 129 130 131 132 134 136 138 139 140 141 141 143 146 149 153 154 155 158 160 161 162 162 163 166 170 169 165 162 159 156 152 152 155 157 158 158 157 146 121 99 78 68 60 53 59 56 45 46 64 83 86 87 94 87 78 77 74 69 75 96 103 96 93 94 104 114 118 123 127 131 136 141 148 157 163 165 164 162 161
115 118 121 124 126 127 128 129 130 130 131 133 134 135 136 138 139 141 141 141 143 147 152 153 152 154 157 159 162 164 165 165 166 169 165 159 156 153 154 155 157 162 167 166 167 172 158 125 87 65 58 55 48 52 58 53 47 55 77 83 83 94 88 76 69 79 83 84 101 109 104 102 101 101 104 112 123 130 130 128 130 141 157 170 171 160 155 154
117 120 123 125 127 129 129 130 131 132 133 134 135 136 137 138 140 142 144 145 145 149 155 156 154 155 158 162 165 165 167 165 164 164 161 158 156 155 154 154 160 168 174 173 172 182 165 126 75 57 53 54 56 55 58 61 57 54 64 76 77 75 67 47 12 68 114 103 105 113 115 112 106 100 96 99 111 121 123 125 130 136 148 163 163 156 155 157
118 121 124 126 128 128 129 130 131 133 134 135 136 137 139 141 142 143 144 145 147 150 155 156 155 156 159 163 164 165 166 163 163 165 163 160 160 158 152 152 162 165 174 186 173 170 146 103 67 58 55 55 66 65 60 64 65 61 62 77 84 73 56 28 3 76 129 113 110 116 134 133 121 115 106 95 100 107 111 121 131 130 135 146 154 160 162 162
120 122 124 125 126 127 129 130 131 133 133 134 136 137 139 140 142 145 144 147 151 153 156 156 156 157 157 161 161 161 164 162 161 165 164 162 162 162 158 161 169 167 178 196 189 176 34 44 66 52 34 38 61 68 65 67 69 66 61 70 82 77 68 57 59 104 126 118 115 125 159 162 147 141 139 127 119 115 115 120 129 131 138 148 153 160 160 165
121 123 124 124 124 126 128 130 131 133 134 136 138 139 141 141 145 149 147 150 155 155 155 155 156 157 157 161 161 160 165 166 163 164 163 164 165 168 171 173 176 178 183 199 205 201 268 268 191 15 353 5 50 64 67 66 67 67 62 65 76 80 80 77 80 101 116 111 108 115 132 152 152 147 146 141 136 135 132 132 138 141 143 143 139 136 143 174
122 123 123 122 124 127 129 132 134 136 139 140 142 144 145 147 152 153 150 151 154 154 153 153 156 160 161 165 165 166 172 172 169 167 166 168 172 175 177 180 186 191 194 202 203 201 217 224 222 259 296 330 37 52 57 54 55 59 61 65 76 84 89 88 87 98 108 104 99 102 107 115 127 132 132 134 135 139 140 137 138 141 139 134 128 131 146 159
124 124 124 125 128 130 133 136 139 142 145 145 146 148 150 153 154 153 149 149 151 151 151 153 159 165 166 169 170 171 175 176 173 170 170 172 172 174 176 180 188 189 193 194 188 202 229 228 233 252 271 301 23 32 37 31 33 50 58 61 71 81 86 91 93 99 107 106 101 97 96 97 100 108 112 113 119 124 128 128 131 136 137 134 133 139 154 168
127 127 128 131 134 136 138 142 145 148 148 148 150 151 152 153 151 148 147 148 150 153 154 157 161 168 172 173 173 173 175 176 175 172 172 170 167 170 170 171 177 171 176 175 156 219 237 233 237 248 264 291 357 14 19 6 9 35 45 51 60 70 81 89 93 98 105 108 105 98 95 97 98 100 104 105 105 105 106 112 119 123 123 123 128 159 196 230
132 132 135 138 140 142 144 148 151 151 149 149 150 151 151 150 147 148 149 149 153 158 160 161 164 171 177 177 176 177 177 176 175 172 169 165 167 173 162 158 176 171 170 165 124 251 243 240 243 249 264 299 357 341 336 323 322 2 27 42 49 51 69 90 95 93 100 107 107 102 95 96 102 103 104 100 89 79 71 77 88 104 121 293 287 269 260 266
139 140 143 144 145 147 149 153 153 151 149 148 149 150 150 150 149 152 153 154 160 165 166 165 168 174 179 182 182 180 180 178 174 170 167 169 174 177 166 166 185 188 185 182 165 267 249 248 253 263 283 315 309 296 308 303 292 313 356 23 31 41 54 83 98 92 94 99 103 107 98 94 95 68 24 8 17 22 19 18 342 260 252 287 312 313 308 298
145 146 146 146 149 151 152 155 155 153 150 149 149 150 151 152 152 154 157 159 165 171 171 169 171 175 180 186 184 180 182 182 176 170 168 176 183 180 180 187 196 208 215 208 209 236 246 255 257 264 274 300 309 304 311 310 302 309 311 303 345 42 43 52 83 94 100 94 87 176 95 88 15 334 333 334 337 343 340 326 306 296 295 304 316 316 313 301
149 149 149 149 152 155 156 158 158 156 153 150 151 152 154 155 155 160 165 167 171 174 177 175 173 178 185 187 185 182 183 185 180 175 173 183 193 194 193 196 200 214 227 222 214 217 231 253 258 259 267 308 330 328 331 333 323 322 308 284 335 20 19 24 62 82 74 63 71 268 20 59 10 333 330 332 332 330 326 314 303 298 299 300 301 305 303 278
151 151 152 152 156 159 161 163 160 157 155 153 153 155 157 160 164 170 170 173 179 178 179 179 178 187 196 194 189 184 184 185 183 181 183 187 199 207 203 202 204 211 243 263 256 213 211 237 264 278 308 335 340 336 340 346 347 350 335 304 9 18 7 12 47 71 59 36 240 226 288 274 248 300 314 323 322 321 317 305 301 303 303 300 298 296 284 261
152 153 155 158 161 163 166 167 161 157 158 158 159 159 161 166 175 178 172 176 186 185 184 186 189 199 204 198 195 188 184 188 189 187 188 188 193 202 202 204 201 180 249 285 280 231 222 227 272 318 342 332 320 330 340 348 358 2 358 16 36 33 12 9 27 38 35 338 251 234 249 249 239 263 288 305 306 309 310 305 307 320 327 321 315 300 272 263
154 157 161 164 165 167 170 169 162 159 160 163 164 163 165 173 178 180 180 187 194 192 189 192 194 200 199 193 195 193 184 186 194 191 190 191 190 193 196 202 203 181 185 226 227 238 262 247 266 316 341 315 287 312 344 356 7 0 12 75 74 65 34 18 22 5 345 317 278 257 251 246 252 270 277 289 301 307 310 308 314 332 348 346 339 317 275 265
159 161 164 165 166 171 174 169 161 157 161 167 168 167 172 177 179 181 190 199 201 196 191 189 187 190 193 187 189 197 188 182 191 192 188 193 193 193 198 198 199 199 193 196 201 211 238 253 274 294 315 310 278 290 323 354 15 0 60 106 134 130 109 86 16 320 313 316 293 275 262 253 269 295 282 277 294 302 300 304 321 344 357 359 359 343 289 261
165 166 165 166 169 174 174 167 159 157 164 170 170 173 179 185 191 199 207 208 201 197 192 186 184 187 191 184 180 193 190 177 184 189 188 192 191 198 211 202 190 202 199 196 215 221 231 253 261 281 300 308 276 267 288 306 332 323 143 149 184 177 172 183 215 262 288 317 299 283 281 270 279 298 287 274 287 295 292 296 318 344 357 6 13 0 314 272
170 169 168 171 175 176 173 167 163 164 171 174 175 181 187 195 205 215 224 218 203 196 190 186 187 187 185 181 179 185 186 179 181 184 186 189 189 200 218 206 189 201 194 195 216 225 244 247 237 261 285 281 253 240 275 289 285 288 296 283 240 203 204 214 226 252 272 304 298 290 290 287 290 294 285 280 288 294 296 298 314 336 350 3 11 359 329 286
174 172 173 176 179 178 175 171 170 174 178 181 184 190 196 202 211 220 227 214 192 187 186 187 191 190 184 179 180 183 181 182 184 181 186 194 191 193 207 204 194 209 211 207 213 222 245 253 239 239 250 244 236 225 234 265 261 299 333 323 290 220 203 209 221 248 261 280 290 288 285 287 291 290 286 288 292 294 298 303 314 328 335 342 346 336 330 292
177 175 176 179 180 179 176 176 177 181 185 189 194 198 201 204 212 220 211 183 175 183 190 191 191 192 188 179 179 183 180 186 196 189 193 200 186 175 198 207 186 207 234 233 232 236 253 269 261 218 212 227 232 225 226 269 285 322 336 321 300 285 253 224 234 249 253 267 282 288 292 288 281 286 292 297 295 292 294 301 309 316 315 312 306 299 315 278
180 176 177 181 181 178 177 178 181 186 192 197 201 203 203 205 212 213 194 181 186 193 195 196 191 190 189 180 179 186 184 187 197 193 198 205 194 183 196 206 192 213 243 246 244 249 256 266 270 251 226 238 239 229 228 272 303 317 318 314 300 287 286 276 265 261 254 264 274 284 294 291 284 290 298 302 301 296 295 298 302 305 303 295 288 279 267 234
181 177 181 184 181 180 179 179 182 187 195 201 205 206 205 207 208 205 197 194 200 200 196 198 198 191 187 182 182 189 192 185 179 190 207 207 201 197 199 206 213 232 252 255 253 261 263 258 263 261 249 250 254 251 247 263 281 292 297 302 289 271 271 284 286 281 277 278 271 260 275 284 291 296 299 302 305 304 302 299 297 296 293 286 283 275 250 221
184 178 184 185 181 183 183 183 184 187 194 200 205 208 209 208 204 203 203 201 202 202 197 198 198 193 190 191 191 197 209 202 178 193 217 208 205 209 206 214 230 247 260 262 258 261 257 252 257 263 260 254 259 268 261 249 251 262 276 284 283 272 269 284 291 292 292 286 276 265 268 276 284 295 301 306 307 306 303 296 290 287 283 276 273 271 250 223
187 183 188 187 182 186 189 189 190 191 194 201 206 210 211 210 205 204 206 203 200 201 199 196 195 193 195 201 205 210 223 225 201 203 215 207 208 221 226 229 242 259 266 266 266 262 251 250 253 258 262 260 258 258 252 243 235 236 251 262 271 276 274 276 283 289 294 290 284 281 277 277 282 294 303 308 306 303 299 290 284 281 275 267 261 261 245 222
192 190 192 189 185 188 193 195 195 197 201 206 211 214 213 211 206 205 206 202 200 199 198 198 197 198 202 210 218 221 224 229 221 213 214 214 218 231 242 246 250 260 265 264 263 258 246 246 248 250 258 261 260 252 247 249 243 237 249 257 259 266 272 275 277 282 286 282 283 288 284 284 290 298 303 304 302 300 295 287 281 275 270 262 254 250 237 217
198 197 195 192 190 191 198 201 200 201 207 213 217 218 216 214 209 207 206 203 203 202 201 204 205 206 211 217 227 230 224 219 219 217 216 222 231 240 249 255 253 252 264 267 259 252 244 239 242 245 253 262 268 267 260 258 256 251 255 259 257 262 275 279 280 282 282 278 280 287 286 290 298 303 301 301 301 300 293 284 276 268 263 257 246 237 222 206
202 203 201 198 195 195 200 203 202 204 210 218 224 223 221 219 213 209 208 206 209 211 213 216 216 215 218 221 229 236 228 211 209 217 223 228 238 248 254 258 257 253 259 264 257 251 248 242 239 241 246 256 263 265 265 266 271 271 267 268 274 283 287 288 286 284 283 285 286 284 283 292 302 306 304 306 307 304 293 279 268 260 254 244 227 213 198 190
203 206 205 204 201 199 201 201 202 205 212 221 228 229 226 222 214 209 208 209 214 218 222 224 221 219 221 222 229 238 237 224 211 213 227 237 243 253 257 257 259 259 256 255 252 246 244 243 241 243 248 253 255 256 261 268 276 280 279 280 284 287 286 283 278 274 275 285 291 284 283 294 304 309 314 319 322 319 307 281 263 251 232 211 197 187 177 176
205 206 206 206 205 203 202 202 203 206 212 221 228 231 230 226 218 213 212 216 220 221 222 224 222 219 219 223 228 236 244 249 234 213 220 238 250 261 262 257 257 257 250 247 245 241 242 244 243 246 249 249 249 251 255 264 272 278 280 279 276 277 278 275 269 264 263 273 283 288 292 299 306 314 326 332 333 336 334 297 252 218 188 175 172 168 164 168
207 206 205 206 207 206 202 203 206 208 213 220 226 230 232 231 227 224 224 224 226 226 222 220 218 215 214 220 228 237 251 271 278 251 242 257 265 265 263 258 255 251 243 240 239 239 244 246 244 246 245 242 244 248 251 257 262 263 263 263 263 267 272 270 262 260 264 269 278 291 299 305 314 323 333 340 342 349 2 7 169 160 158 158 158 156 155 160
210 207 204 205 208 208 206 206 209 211 215 221 225 228 233 234 233 233 233 232 232 232 226 220 217 214 212 215 224 236 249 268 284 285 279 277 274 268 263 259 256 251 244 244 243 244 248 248 247 246 243 241 241 243 244 245 244 242 244 249 256 261 261 258 257 261 267 271 278 294 306 317 328 329 333 345 352 358 21 70 132 142 147 149 150 152 151 153
213 210 206 204 206 209 210 210 211 215 219 222 225 228 230 233 234 236 237 237 237 237 232 226 221 215 212 215 224 238 252 263 271 275 275 271 267 265 260 257 254 247 242 244 247 249 248 244 242 241 239 236 231 227 230 232 234 235 238 244 248 246 244 248 253 256 262 276 297 321 329 331 335 338 340 347 356 4 33 113 141 145 150 151 154 160 163 169
215 213 209 206 207 210 212 212 214 217 221 224 225 227 230 233 234 236 238 238 237 234 227 223 221 212 208 217 232 242 251 257 259 261 264 260 255 256 254 248 243 241 241 245 248 248 242 234 232 232 231 227 223 221 224 230 237 242 241 237 235 236 241 247 246 244 284 330 346 4 350 334 336 349 351 350 358 9 28 126 155 168 169 167 176 189 195 199
217 216 213 209 209 212 214 214 216 219 223 226 227 229 234 235 235 238 238 232 227 222 214 209 209 208 210 221 235 241 247 252 254 254 256 252 246 246 245 235 233 243 250 254 253 244 235 230 229 232 236 231 228 231 234 239 252 253 232 214 221 228 232 235 239 56 37 18 10 10 354 335 337 347 347 345 352 0 7 23 190 195 194 190 200 213 218 220